STARLINK-1826 (46723 NORAD) Tracking and Keplerian Element Data

This shows tracking and keplerian element data for the satellite.

Feedback or suggestion? Click here.




ElementValue
Catalog46723
NameSTARLINK-1826
Epoch Orbit181
Epoch Day336.91667824
Epoch Year2020
RAAN250.9665
Inclination53.0554
Eccentricity0.0001096
Argument of Perigee57.3804
Mean Anonmoly39.3363
Mean Motion15.62738895
Decay Rate0.00035919
L11 46723U 20073BF 20336.91667824 .00035919 00000-0 39660-3 0 9995
L22 46723 53.0554 250.9665 0001096 57.3804 39.3363 15.62738895 1813

Live tracking and technical data element details for STARLINK-1826 (NORAD 46723). STARLINK-1826 can be tracked NOW for your location showing map with azimuth and elevation plus other details from your city location.

Track the satellite on the map from your city or location and see movement details for azimuth, elevation, latitude, longitude, range, height, and movement on the map or in text.







IsCatalogInMostPopularTable: catalog: 46723, numindb: 12
Update: records affected: 1



GetName: 46723 STARLINK-1826

Hit Count: updated at: Thu, 03 Dec 2020 02:54:14 GMT